sat.trackr.live / text

‹ back to catalog

STARLINK-34783

NORAD 66337 · 2025-253U

PAYLOAD ACTIVE UNKNOWN

§ Identity

Operator
Country
US
Launch date
2025-11-06
Launch site
AFETR
Launch vehicle
Mass (kg)
RCS (m²)

Purposes: comms

External: N2YO · Heavens-Above · Gunter

§ Orbital elements

Epoch: 2026-09-20T04:13:07.456800Z

Period
94.27 min
Inclination
42.9986°
Eccentricity
0.0001090
Mean motion
15.27589124 rev/d
Perigee alt
482.3 km
Apogee alt
483.8 km
Semi-major
6,861.2 km
B*
3.3643e-4
RAAN
194.5792°
Arg perigee
265.5228°
Mean anomaly
94.5499°
Rev number
4,998

§ Raw data

STARLINK-347831 66337U 25253U   26263.17578075  .00009010  00000+0  33643-3 0  99922 66337  42.9986 194.5792 0001090 265.5228  94.5499 15.27589124 49986

JSON: /api/v1/satellites/66337 · /tle

For live sub-satellite position, see the globe view (requires WebGL).

§ Visibility from observer

Set your observer location to see the next 7 days of passes ≥ 10°. The values pass through the URL so the page stays shareable.

No JS? Fill the form by hand. The geolocation button needs JavaScript.